Simultaneous Nadir Overpasses (SNOs) Predictions

Prediction of SNOs between AQUA and NOAA-19 Satellite Orbit:

Table of predicted SNOs for the next 14.0 days since TLE Epoch: 5/15/2021
Index Date (AQUA) Time (AQUA) Lat,Lon (AQUA) SZA (AQUA ) Date (NOAA-19) Time (NOAA-19) Lat,Lon (NOAA-19) SZA (NOAA-19 ) Distance(km) Time Diff (sec)
1 05/15/2021 17:42:14 -78.85, 71.60 119.38 05/15/2021 17:41:07 -78.88, 71.57 119.33 3.29 67
2 05/15/2021 18:31:42 78.90,-121.06 60.68 05/15/2021 18:32:10 78.91,-120.94 60.68 2.67 28
3 05/18/2021 00:05:25 -78.87, -24.30 119.87 05/18/2021 00:05:17 -78.89, -24.25 119.84 3.11 8
4 05/20/2021 05:39:08 78.87, 72.24 59.67 05/20/2021 05:38:32 78.85, 72.18 59.67 2.96 36
5 05/20/2021 06:28:35 -78.89,-120.23 120.31 05/20/2021 06:29:27 -78.88,-120.34 120.33 2.94 52
6 05/22/2021 11:12:51 -78.84, 168.99 120.82 05/22/2021 11:11:38 -78.84, 168.96 120.79 0.84 73
7 05/22/2021 12:02:18 78.86, -23.49 59.21 05/22/2021 12:02:42 78.87, -23.63 59.22 2.94 24
8 05/24/2021 17:36:02 -78.87, 73.02 121.20 05/24/2021 17:35:48 -78.86, 73.11 121.21 2.40 14
9 05/26/2021 23:09:45 78.85, 169.68 58.40 05/26/2021 23:09:03 78.85, 169.85 58.40 3.70 42



Historial Predications of SNOs between AQUA and NOAA-19
